カタログに戻る

INTELSAT 605

運用中通信GEO
NORAD 21653·PAYLOAD· XX

打ち上げ Aug 14, 1991 から Guiana Space Centre

Loading…

TLE

最新Source: Space-Track

元期: Sep 14, 2026, 15:13 UTC

1 21653U 91055A   26257.63410529 -.00000290  00000-0  00000+0 0  9990
2 21653  13.6615  16.8535 0003284 216.2702 145.9653  0.99330107127821

AllMySatでINTELSAT 605をリアルタイム追跡

Download on the App Store